Time,TemperatureF,DewpointF,PressureIn,WindDirection,WindDirectionDegrees,WindSpeedMPH,WindSpeedGustMPH,Humidity,HourlyPrecipIn,Conditions,Clouds,dailyrainin,SoftwareType,DateUTC
2013-08-14 00:14:00,56.4,54.1,30.01,ESE,108,0.0,0.0,92,0.00,CLR,SCT,0.00,WeatherDisplay:10.37,2013-08-14 07:14:00,
2013-08-14 00:29:00,55.8,53.8,30.02,ESE,108,0.0,0.0,93,0.00,CLR,SCT,0.00,WeatherDisplay:10.37,2013-08-14 07:29:00,
2013-08-14 00:44:00,55.9,53.9,30.03,ESE,108,0.0,0.0,93,0.00,CLR,SCT,0.00,WeatherDisplay:10.37,2013-08-14 07:44:00,
2013-08-14 00:59:00,56.0,54.3,30.02,ESE,108,0.0,0.0,94,0.00,CLR,SCT,0.00,WeatherDisplay:10.37,2013-08-14 07:59:00,
2013-08-14 01:14:00,56.0,54.3,30.02,ESE,108,0.0,0.0,94,0.00,CLR,SCT,0.00,WeatherDisplay:10.37,2013-08-14 08:14:00,
2013-08-14 01:29:00,55.3,53.3,30.02,ESE,108,0.0,0.0,93,0.00,CLR,SCT,0.00,WeatherDisplay:10.37,2013-08-14 08:29:00,
2013-08-14 01:44:00,55.0,53.3,30.03,ESE,108,0.0,0.0,94,0.00,CLR,SCT,0.00,WeatherDisplay:10.37,2013-08-14 08:44:00,
2013-08-14 01:59:00,55.2,53.5,30.03,ESE,108,0.0,0.0,94,0.00,CLR,SCT,0.00,WeatherDisplay:10.37,2013-08-14 08:59:00,
2013-08-14 02:14:00,55.2,53.5,30.03,ESE,108,0.0,0.0,94,0.00,CLR,SCT,0.00,WeatherDisplay:10.37,2013-08-14 09:14:00,
2013-08-14 02:29:00,54.8,52.8,30.03,ESE,108,0.0,0.0,93,0.00,CLR,SCT,0.00,WeatherDisplay:10.37,2013-08-14 09:29:00,
2013-08-14 02:44:00,54.6,52.9,30.02,ESE,108,0.0,0.0,94,0.00,CLR,SCT,0.00,WeatherDisplay:10.37,2013-08-14 09:44:00,
2013-08-14 02:59:00,54.2,52.2,30.02,ESE,108,0.0,0.0,93,0.00,CLR,SCT,0.00,WeatherDisplay:10.37,2013-08-14 09:59:00,
2013-08-14 03:14:00,53.9,52.2,30.02,ESE,108,0.0,0.0,94,0.00,CLR,SCT,0.00,WeatherDisplay:10.37,2013-08-14 10:14:00,
2013-08-14 03:29:00,53.9,52.2,30.02,ESE,108,0.0,0.0,94,0.00,CLR,SCT,0.00,WeatherDisplay:10.37,2013-08-14 10:29:00,
2013-08-14 03:44:00,53.9,52.5,30.02,ESE,108,0.0,0.0,95,0.00,CLR,SCT,0.00,WeatherDisplay:10.37,2013-08-14 10:44:00,
2013-08-14 03:59:00,54.1,52.7,30.02,ESE,108,0.0,0.0,95,0.00,CLR,SCT,0.00,WeatherDisplay:10.37,2013-08-14 10:59:00,
2013-08-14 04:14:00,54.6,53.2,30.02,ESE,108,0.0,0.0,95,0.00,CLR,SCT,0.00,WeatherDisplay:10.37,2013-08-14 11:14:00,
2013-08-14 04:29:00,54.6,53.2,30.01,ESE,108,0.0,0.0,95,0.00,CLR,SCT,0.00,WeatherDisplay:10.37,2013-08-14 11:29:00,
2013-08-14 04:44:00,54.6,53.2,30.01,ESE,108,0.0,0.0,95,0.00,CLR,SCT,0.00,WeatherDisplay:10.37,2013-08-14 11:44:00,
2013-08-14 04:59:00,54.5,53.1,30.01,ESE,108,0.0,0.0,95,0.00,CLR,SCT,0.00,WeatherDisplay:10.37,2013-08-14 11:59:00,
2013-08-14 05:14:00,54.5,53.1,30.00,ESE,108,0.0,0.0,95,0.00,CLR,SCT,0.00,WeatherDisplay:10.37,2013-08-14 12:14:00,
2013-08-14 05:29:00,54.6,53.2,30.00,SE,133,0.0,0.0,95,0.00,CLR,SCT,0.00,WeatherDisplay:10.37,2013-08-14 12:29:00,
2013-08-14 05:44:00,54.5,53.1,30.00,WSW,246,0.0,0.0,95,0.00,CLR,SCT,0.00,WeatherDisplay:10.37,2013-08-14 12:44:00,
2013-08-14 05:59:00,54.6,53.2,30.01,WSW,246,0.0,0.0,95,0.00,CLR,SCT,0.00,WeatherDisplay:10.37,2013-08-14 12:59:00,
2013-08-14 06:14:00,54.6,53.5,30.00,SSW,199,0.0,0.0,96,0.00,CLR,SCT,0.00,WeatherDisplay:10.37,2013-08-14 13:14:00,
2013-08-14 06:29:00,54.7,53.6,30.00,SSW,199,0.0,0.0,96,0.00,CLR,SCT,0.00,WeatherDisplay:10.37,2013-08-14 13:29:00,
2013-08-14 06:44:00,54.7,53.6,29.99,SSW,199,0.0,0.0,96,0.00,CLR,SCT,0.00,WeatherDisplay:10.37,2013-08-14 13:44:00,
2013-08-14 06:59:00,54.9,53.5,29.99,SSW,200,0.0,0.0,95,0.00,CLR,SCT,0.00,WeatherDisplay:10.37,2013-08-14 13:59:00,
2013-08-14 07:14:00,55.1,53.7,30.00,SW,228,0.0,0.0,95,0.00,CLR,SCT,0.00,WeatherDisplay:10.37,2013-08-14 14:14:00,
2013-08-14 07:29:00,55.2,53.8,30.00,SW,228,0.0,0.0,95,0.00,CLR,SCT,0.00,WeatherDisplay:10.37,2013-08-14 14:29:00,
2013-08-14 07:44:00,55.4,54.3,30.00,SW,221,0.0,0.0,96,0.00,CLR,SCT,0.00,WeatherDisplay:10.37,2013-08-14 14:44:00,
2013-08-14 07:59:00,55.8,54.4,29.99,SW,231,0.0,0.0,95,0.00,CLR,SCT,0.00,WeatherDisplay:10.37,2013-08-14 14:59:00,
2013-08-14 08:14:00,56.1,54.4,30.00,SW,232,0.0,0.0,94,0.00,CLR,SCT,0.00,WeatherDisplay:10.37,2013-08-14 15:14:00,
2013-08-14 08:29:00,56.8,55.1,30.00,SW,232,0.0,0.0,94,0.00,CLR,SCT,0.00,WeatherDisplay:10.37,2013-08-14 15:29:00,
2013-08-14 08:44:00,58.3,55.9,30.00,SW,232,0.0,0.0,92,0.00,CLR,SCT,0.00,WeatherDisplay:10.37,2013-08-14 15:44:00,
2013-08-14 08:59:00,59.8,56.6,30.00,WSW,239,0.0,0.0,89,0.00,CLR,SCT,0.00,WeatherDisplay:10.37,2013-08-14 15:59:00,
2013-08-14 09:14:00,61.1,56.9,30.00,West,271,0.0,0.0,86,0.00,CLR,SCT,0.00,WeatherDisplay:10.37,2013-08-14 16:14:00,
2013-08-14 09:29:00,61.9,57.0,30.01,West,260,0.0,0.0,84,0.00,CLR,SCT,0.00,WeatherDisplay:10.37,2013-08-14 16:29:00,
2013-08-14 09:44:00,62.5,57.6,30.01,WSW,257,0.0,0.0,84,0.00,CLR,SCT,0.00,WeatherDisplay:10.37,2013-08-14 16:44:00,
2013-08-14 09:59:00,63.0,58.1,30.01,South,186,0.0,0.0,84,0.00,CLR,SCT,0.00,WeatherDisplay:10.37,2013-08-14 16:59:00,
2013-08-14 10:14:00,63.9,56.5,30.00,SW,232,0.0,0.0,77,0.00,CLR,SCT,0.00,WeatherDisplay:10.37,2013-08-14 17:14:00,
2013-08-14 10:29:00,65.0,56.9,30.00,SW,230,0.0,0.0,75,0.00,CLR,SCT,0.00,WeatherDisplay:10.37,2013-08-14 17:29:00,
2013-08-14 10:44:00,66.3,57.0,30.01,WSW,242,0.0,0.0,72,0.00,CLR,SCT,0.00,WeatherDisplay:10.37,2013-08-14 17:44:00,
2013-08-14 10:59:00,66.9,56.8,30.00,SSW,192,0.0,0.0,70,0.00,CLR,SCT,0.00,WeatherDisplay:10.37,2013-08-14 17:59:00,
2013-08-14 11:44:00,69.5,58.1,30.00,West,263,0.0,0.0,67,0.00,CLR,SCT,0.00,WeatherDisplay:10.37,2013-08-14 18:44:00,
2013-08-14 11:59:00,71.0,58.2,29.99,South,171,0.0,0.0,64,0.00,CLR,SCT,0.00,WeatherDisplay:10.37,2013-08-14 18:59:00,
2013-08-14 12:44:00,71.8,59.0,29.99,West,269,0.0,0.0,64,0.00,CLR,SCT,0.00,WeatherDisplay:10.37,2013-08-14 19:44:00,
2013-08-14 12:59:00,71.4,58.1,29.99,West,266,0.0,0.0,63,0.00,CLR,SCT,0.00,WeatherDisplay:10.37,2013-08-14 19:59:00,
2013-08-14 13:14:00,71.9,56.8,30.00,West,271,0.0,0.0,59,0.00,CLR,SCT,0.00,WeatherDisplay:10.37,2013-08-14 20:14:00,
2013-08-14 13:29:00,71.9,56.3,30.00,WNW,283,0.0,0.0,58,0.00,CLR,SCT,0.00,WeatherDisplay:10.37,2013-08-14 20:29:00,
2013-08-14 13:59:00,73.1,56.5,30.00,NW,319,0.0,0.0,56,0.00,CLR,SCT,0.00,WeatherDisplay:10.37,2013-08-14 20:59:00,
2013-08-14 14:14:00,74.3,56.6,29.99,West,270,0.0,0.0,54,0.00,CLR,SCT,0.00,WeatherDisplay:10.37,2013-08-14 21:14:00,
2013-08-14 14:29:00,74.2,57.0,30.00,WNW,282,0.0,0.0,55,0.00,CLR,SCT,0.00,WeatherDisplay:10.37,2013-08-14 21:29:00,
2013-08-14 14:44:00,74.4,56.7,30.00,West,281,0.0,0.0,54,0.00,CLR,SCT,0.00,WeatherDisplay:10.37,2013-08-14 21:44:00,
2013-08-14 14:59:00,73.9,57.2,30.00,West,275,0.0,0.0,56,0.00,CLR,SCT,0.00,WeatherDisplay:10.37,2013-08-14 21:59:00,
2013-08-14 15:14:00,74.7,59.9,30.00,ESE,122,0.0,0.0,60,0.00,CLR,SCT,0.00,WeatherDisplay:10.37,2013-08-14 22:14:00,
2013-08-14 15:29:00,74.1,61.2,29.99,WNW,285,0.0,0.0,64,0.00,CLR,SCT,0.00,WeatherDisplay:10.37,2013-08-14 22:29:00,
2013-08-14 15:44:00,73.6,61.1,30.00,WNW,303,0.0,0.0,65,0.00,CLR,SCT,0.00,WeatherDisplay:10.37,2013-08-14 22:44:00,
2013-08-14 15:59:00,72.8,61.6,29.99,West,280,0.0,0.0,68,0.00,CLR,SCT,0.00,WeatherDisplay:10.37,2013-08-14 22:59:00,
2013-08-14 16:14:00,73.3,61.7,29.99,NW,323,0.0,0.0,67,0.00,CLR,SCT,0.00,WeatherDisplay:10.37,2013-08-14 23:14:00,
2013-08-14 16:29:00,72.4,61.3,29.99,WNW,295,0.0,0.0,68,0.00,CLR,SCT,0.00,WeatherDisplay:10.37,2013-08-14 23:29:00,
2013-08-14 16:44:00,71.7,61.4,29.99,West,274,3.0,12.0,70,0.00,CLR,SCT,0.00,WeatherDisplay:10.37,2013-08-14 23:44:00,
2013-08-14 16:59:00,71.1,61.2,29.99,WNW,283,2.0,8.0,71,0.00,CLR,SCT,0.00,WeatherDisplay:10.37,2013-08-14 23:59:00,
2013-08-14 17:14:00,70.2,61.2,29.99,NW,319,1.0,9.0,73,0.00,CLR,SCT,0.00,WeatherDisplay:10.37,2013-08-15 00:14:00,
2013-08-14 17:29:00,69.2,61.3,29.99,West,268,0.0,7.0,76,0.00,CLR,SCT,0.00,WeatherDisplay:10.37,2013-08-15 00:29:00,
2013-08-14 17:44:00,68.8,61.7,29.99,West,269,1.0,10.0,78,0.00,CLR,SCT,0.00,WeatherDisplay:10.37,2013-08-15 00:44:00,
2013-08-14 17:59:00,68.5,61.7,29.99,WNW,295,0.0,2.0,79,0.00,CLR,SCT,0.00,WeatherDisplay:10.37,2013-08-15 00:59:00,
2013-08-14 18:14:00,68.4,62.0,29.99,SE,145,0.0,2.0,80,0.00,CLR,SCT,0.00,WeatherDisplay:10.37,2013-08-15 01:14:00,
2013-08-14 18:29:00,68.3,62.2,29.99,West,266,1.0,5.0,81,0.00,CLR,SCT,0.00,WeatherDisplay:10.37,2013-08-15 01:29:00,
2013-08-14 18:44:00,67.7,62.7,29.99,WNW,292,0.0,3.0,84,0.00,CLR,SCT,0.00,WeatherDisplay:10.37,2013-08-15 01:44:00,
2013-08-14 18:59:00,66.8,62.8,29.99,WNW,287,0.0,2.0,87,0.01,CLR,SCT,0.01,WeatherDisplay:10.37,2013-08-15 01:59:00,
2013-08-14 19:14:00,66.1,62.8,29.99,West,278,0.0,2.0,89,0.01,RA,SCT,0.02,WeatherDisplay:10.37,2013-08-15 02:14:00,
2013-08-14 19:29:00,65.8,63.1,29.99,WSW,252,0.0,1.0,91,0.01,RA,SCT,0.03,WeatherDisplay:10.37,2013-08-15 02:29:00,
2013-08-14 19:44:00,65.5,63.1,29.99,WSW,252,0.0,2.0,92,0.01,RA,SCT,0.04,WeatherDisplay:10.37,2013-08-15 02:44:00,
2013-08-14 19:59:00,65.1,62.7,29.98,WSW,252,0.0,0.0,92,0.01,RA,SCT,0.05,WeatherDisplay:10.37,2013-08-15 02:59:00,
2013-08-14 20:14:00,65.0,62.9,29.97,WSW,252,0.0,0.0,93,0.01,RA,SCT,0.06,WeatherDisplay:10.37,2013-08-15 03:14:00,
2013-08-14 20:29:00,65.0,63.2,29.98,WSW,252,0.0,0.0,94,0.00,CLR,SCT,0.06,WeatherDisplay:10.37,2013-08-15 03:29:00,
2013-08-14 20:44:00,64.9,63.1,29.98,WSW,252,0.0,1.0,94,0.00,CLR,SCT,0.06,WeatherDisplay:10.37,2013-08-15 03:44:00,
2013-08-14 20:59:00,64.8,63.0,29.98,WSW,252,0.0,0.0,94,0.00,CLR,SCT,0.06,WeatherDisplay:10.37,2013-08-15 03:59:00,
2013-08-14 21:14:00,64.7,62.9,29.99,WSW,252,0.0,1.0,94,0.01,RA,SCT,0.07,WeatherDisplay:10.37,2013-08-15 04:14:00,
2013-08-14 21:29:00,64.6,63.1,29.99,WSW,252,0.0,0.0,95,0.00,CLR,SCT,0.07,WeatherDisplay:10.37,2013-08-15 04:29:00,
2013-08-14 21:44:00,64.7,63.2,29.99,WSW,252,0.0,0.0,95,0.00,CLR,SCT,0.07,WeatherDisplay:10.37,2013-08-15 04:44:00,
2013-08-14 21:59:00,64.7,63.2,29.99,WSW,252,0.0,0.0,95,0.01,RA,SCT,0.08,WeatherDisplay:10.37,2013-08-15 04:59:00,
2013-08-14 22:14:00,64.7,63.2,29.99,WSW,252,0.0,0.0,95,0.01,RA,SCT,0.09,WeatherDisplay:10.37,2013-08-15 05:14:00,
2013-08-14 22:29:00,64.7,63.2,29.99,WSW,252,0.0,1.0,95,0.01,,SCT,0.10,WeatherDisplay:10.37,2013-08-15 05:29:00,
2013-08-14 22:44:00,64.6,63.1,30.00,WSW,252,0.0,0.0,95,0.01,CLR,SCT,0.11,WeatherDisplay:10.37,2013-08-15 05:44:00,
2013-08-14 22:59:00,64.6,63.4,29.99,WSW,252,0.0,0.0,96,0.01,RA,SCT,0.12,WeatherDisplay:10.37,2013-08-15 05:59:00,
2013-08-14 23:14:00,64.6,63.4,30.00,WSW,252,0.0,1.0,96,0.01,RA,SCT,0.13,WeatherDisplay:10.37,2013-08-15 06:14:00,
2013-08-14 23:29:00,64.7,63.5,29.99,WSW,252,0.0,1.0,96,0.01,RA,SCT,0.14,WeatherDisplay:10.37,2013-08-15 06:29:00,
2013-08-14 23:44:00,64.6,63.4,29.99,WNW,296,0.0,3.0,96,0.00,CLR,SCT,0.14,WeatherDisplay:10.37,2013-08-15 06:44:00,
2013-08-14 23:59:00,64.5,63.3,29.99,South,173,0.0,3.0,96,0.01,RA,SCT,0.00,WeatherDisplay:10.37,2013-08-15 06:59:00,